SCP
0 0 0 0 0 0 0 0 0 0 0 0 0 0 0 0 0 0 0 0 0 0 0 0 0 0 0 0 0 0 0 0 0 0 0 0 0 0 0 0 0 0 0
0 0 0 0 0 0 0 0 0 0 0 0 0 0 0 0 0 0 0 0 0 0 0 0 0 0 0 0 0 0 0 0 0 0 0 0 0 0 0 0 0 0 0
0 0 0 0 0 0 0 0 0 0 0 0 0 0 0 0 0 0 0 0 0 0 0 0 0 0 0 0 0 0 0 0 0 0 0 0 0 0 0 0 0 0 0
0 0 0 0 0 0 0 0 0 0 0 0 0 0 0 0 0 0 0 0 0 0 0 0 0 0 0 0 0 0 0 0 0 0 0 0 0 0 0 0 0 0 0
0 0 0 0 0 0 0 0 0 0 0 0 0 0 0 0 0 0 0 0 0 0 0 0 0 0 0 0 0 0 0 0 0 0 0 0 0 0 0 0 0 0 0
0 0 0 0 0 0 0 0 0 0 0 0 0 0 0 0 0 0 0 0 0 0 0 0 0 0 0 0 0 0 0 0 0 0 0 0 0 0 0 0 0 0 0
0 0 0 1 1 1 1 0 0 0 0 0 0 0 0 0 0 0 0 0 0 0 0 0 0 0 0 0 0 0 0 0 0 0 0 0 0 0 0 0 0 0 0
0 0 1 1 1 1 1 1 1 0 0 0 0 0 0 0 0 0 0 0 0 0 0 0 0 0 0 0 0 0 0 0 0 0 0 0 0 0 0 0 0 0 0
0 0 1 1 1 1 1 1 1 1 0 0 0 0 0 0 0 0 0 0 0 0 0 0 0 0 0 0 0 0 0 0 0 0 0 0 0 0 0 1 1 1 0
0 0 1 1 1 1 1 1 1 1 1 0 0 0 0 0 0 0 0 0 0 0 0 0 0 0 0 1 0 0 0 0 0 0 0 0 0 0 0 1 1 1 1
0 0 1 1 1 1 1 1 1 1 1 0 0 0 0 0 0 0 0 0 0 0 1 1 1 1 1 1 1 1 0 0 0 0 0 0 0 0 1 1 1 1 1
1 1 1 1 1 1 1 1 1 1 1 0 0 0 0 0 0 0 0 0 0 1 1 1 1 1 1 1 0 0 0 0 0 0 0 0 0 1 1 1 1 1 1
1 1 1 1 1 1 1 1 1 1 0 0 0 0 0 0 0 0 0 0 0 1 1 1 1 1 1 0 0 0 0 0 0 0 0 1 1 1 1 1 1 1 1
1 1 1 1 1 1 1 1 1 1 1 0 0 0 0 0 0 0 0 0 0 1 1 1 1 1 1 0 0 0 0 0 1 1 1 1 1 1 2 2 2 2 1
1 1 1 1 1 1 1 1 1 1 1 1 1 1 1 1 1 0 0 1 1 1 1 1 1 1 1 1 1 1 1 1 1 1 1 1 1 1 2 2 2 2 2
2 2 1 1 1 1 1 1 1 1 1 1 1 1 1 1 1 1 1 1 1 1 1 1 1 1 1 1 1 1 1 1 1 1 1 1 1 1 2 2 2 2 2
2 2 2 2 2 2 2 2 2 2 1 1 1 1 1 1 1 1 1 1 1 1 1 1 1 1 1 1 1 1 1 1 1 1 1 1 1 1 1 2 2 2 2
3 3 3 3 3 3 3 3 3 2 2 2 2 2 2 2 2 2 2 2 2 2 1 1 1 1 1 1 1 1 1 1 1 0 0 0 1 1 1 1 2 2 2
3 3 3 4 4 3 3 3 3 3 2 2 2 2 2 2 2 2 2 2 2 2 2 1 1 1 1 1 1 1 0 0 0 0 0 0 0 0 1 1 1 2 2
3 3 3 3 4 4 3 3 3 3 2 2 2 2 2 2 2 3 3 2 2 2 2 1 1 1 1 1 1 0 0 0 0 0 0 0 0 0 0 1 1 1 1
3 3 3 3 3 3 3 3 3 3 2 2 2 2 2 2 2 3 3 2 2 2 2 1 1 1 1 1 1 0 0 0 0 0 0 0 0 0 0 0 1 1 1
2 2 2 2 2 2 2 2 2 2 2 2 2 2 2 2 2 2 2 2 2 2 2 1 1 1 1 1 0 0 0 0 0 0 0 0 0 0 0 0 0 0 0
1 1 1 1 1 1 2 2 2 2 2 2 2 2 2 2 2 2 2 2 2 2 1 1 1 1 1 1 0 0 0 0 0 0 0 0 0 0 0 0 0 0 0
1 1 1 1 1 1 1 1 1 1 1 2 2 2 2 2 2 2 2 2 2 2 1 1 1 1 1 1 0 0 0 0 0 0 0 0 0 0 0 0 0 0 0
1 1 1 1 1 1 1 1 1 1 1 1 1 1 1 1 1 2 2 2 1 1 1 1 1 1 1 1 0 0 0 0 0 0 0 0 0 0 0 0 0 0 0
1 1 1 1 1 1 1 1 1 1 1 1 1 1 1 1 1 1 1 1 1 1 1 1 1 1 1 0 0 0 0 0 0 0 0 0 0 0 0 0 0 0 0
Wind_Speed
9 12 19 19 18 17 16 15 15 15 15 15 15 14 14 14 14 13 12 12 11 11 11 11 11 11 11 11 11 11 11 10 10 10 10 10 10 9 8 10 11 8 11
13 14 19 19 19 17 16 15 15 15 14 14 14 13 13 13 12 12 11 11 10 10 10 10 10 10 10 9 9 9 8 8 8 8 8 7 7 7 7 9 11 7 10
16 13 17 19 19 18 16 15 15 14 14 14 13 13 12 11 11 11 10 10 10 9 9 8 8 8 7 7 6 6 5 5 4 4 5 3 3 6 7 10 12 11 10
16 11 14 20 19 18 17 15 15 14 14 13 13 12 11 11 10 10 9 9 9 9 8 7 7 6 6 5 4 3 2 2 2 2 2 3 4 7 8 10 11 11 10
13 10 14 21 19 18 17 15 15 14 14 13 13 12 11 11 10 10 9 8 8 8 8 7 6 6 5 5 4 3 3 3 4 4 3 4 5 8 11 11 12 12 11
12 10 14 20 19 18 17 16 15 14 14 13 13 12 11 11 10 10 10 9 8 8 7 7 7 7 6 6 5 5 5 6 6 3 3 5 5 11 14 14 14 13 12
12 9 13 20 19 18 17 16 15 14 14 13 13 12 12 11 11 11 10 10 9 9 8 8 8 7 7 7 7 7 8 8 5 5 4 4 5 11 16 16 15 15 14
16 12 11 19 19 18 18 17 16 15 14 14 13 13 12 12 11 11 11 10 10 10 9 9 9 9 9 9 9 9 10 10 7 6 4 4 7 12 17 17 16 16 15
14 12 10 11 14 18 18 17 16 15 15 14 14 13 12 12 11 11 11 11 11 11 11 11 11 11 10 10 10 11 11 12 7 5 8 5 7 10 16 18 17 17 16
12 11 10 9 9 9 11 17 17 16 15 15 14 14 13 13 12 12 10 11 13 13 13 13 13 13 12 11 12 12 13 12 7 6 5 7 13 13 15 18 18 17 17
11 10 9 9 8 8 8 13 14 15 15 14 12 15 13 6 6 7 11 13 15 15 15 15 15 14 13 12 14 14 13 5 6 6 6 11 15 15 16 18 19 18 17
14 12 10 10 10 8 9 7 5 7 7 7 6 7 6 5 6 9 10 17 17 18 17 16 16 14 11 6 9 12 6 7 6 6 7 14 16 17 17 17 19 19 18
15 14 13 12 11 10 6 6 4 4 4 6 7 7 6 5 5 7 5 8 11 14 9 9 10 7 6 5 5 5 7 6 5 6 8 15 17 18 18 18 19 19 19
15 15 14 13 11 11 7 6 6 5 5 6 8 9 7 5 6 6 5 6 6 5 6 6 5 7 8 8 8 8 9 6 5 5 7 15 17 17 18 17 18 19 19
15 15 15 14 13 11 8 6 8 7 7 8 7 8 9 7 7 7 6 6 6 6 6 6 7 7 8 8 8 9 9 8 8 7 6 13 15 16 17 18 19 20 19
14 14 14 14 13 11 9 8 7 8 8 8 8 10 12 10 8 7 6 6 6 6 6 6 7 7 6 6 7 7 6 6 6 7 6 7 13 15 17 19 20 21 21
11 11 12 14 13 12 11 10 8 7 7 7 8 10 12 11 10 8 6 6 5 5 5 4 5 4 4 4 5 5 4 5 5 5 6 5 6 12 17 19 20 21 21
5 6 8 10 10 10 8 7 5 5 5 5 5 7 10 12 11 8 7 6 6 4 4 3 3 3 3 3 3 4 4 4 5 5 5 5 5 6 10 18 21 21 21
4 4 4 3 5 6 6 5 5 4 4 3 3 4 7 10 11 8 6 5 5 4 4 4 3 3 3 3 4 4 4 4 5 6 6 6 6 7 7 10 17 20 21
6 5 4 3 3 3 3 3 4 4 3 3 3 4 5 6 7 7 6 6 5 4 4 4 4 3 3 3 4 4 4 5 4 5 6 6 5 7 6 7 6 9 16
7 5 4 3 2 1 2 3 3 4 3 4 4 5 5 5 6 6 6 6 5 5 5 4 3 3 3 2 1 3 4 5 5 5 4 4 4 5 4 4 3 4 5
6 5 4 2 2 3 3 3 3 3 3 4 4 5 6 6 6 6 6 5 5 4 5 5 4 3 3 3 3 2 3 4 3 3 2 2 3 3 3 4 3 3 3
6 5 4 2 1 1 1 1 2 2 2 2 3 4 5 6 6 6 6 6 6 6 6 6 5 6 5 4 4 4 3 4 3 3 2 1 2 2 2 3 3 2 2
4 4 4 3 2 1 1 0 1 2 3 4 4 4 5 5 6 7 7 7 7 6 6 7 7 5 5 4 3 4 4 3 2 3 3 2 2 2 2 2 2 3 2
5 4 4 3 2 2 1 1 1 2 3 3 4 5 5 5 5 6 6 6 6 6 7 7 6 6 5 5 4 3 3 2 3 3 3 3 3 2 1 1 2 2 3
4 3 3 3 2 2 1 1 1 2 4 4 5 5 4 4 4 5 5 5 6 6 7 7 6 7 6 6 4 4 3 3 3 3 3 2 2 3 2 2 3 3 2
Wind_Direction
154 156 154 152 149 147 144 139 135 130 126 121 118 115 113 112 111 111 111 112 113 113 114 113 112 110 109 109 110 113 116 118 120 120 120 120 118 115 112 118 122 113 114
149 155 153 152 151 150 148 144 141 138 134 131 129 127 125 124 122 121 119 118 117 116 116 116 115 114 113 113 113 115 118 119 120 122 125 126 127 121 113 130 132 130 125
145 152 152 153 152 152 150 148 146 145 143 141 140 139 138 137 134 132 129 127 125 124 123 123 122 120 119 119 119 119 119 118 121 132 140 148 159 152 136 133 139 139 138
145 149 152 154 153 153 152 152 151 151 151 151 150 151 150 150 149 146 143 140 139 137 137 137 137 136 136 137 139 142 146 155 183 209 200 209 207 189 174 157 153 154 154
144 147 156 155 155 155 155 156 157 158 159 159 159 160 161 163 164 162 161 160 158 156 156 156 157 159 164 171 182 203 230 248 253 256 253 247 231 208 197 184 173 169 169
144 148 157 157 157 157 159 161 163 164 165 166 168 169 172 174 177 177 176 177 178 178 178 178 179 182 189 198 210 226 243 260 270 259 248 251 235 217 206 199 191 184 182
146 152 159 159 160 161 162 165 168 170 172 174 175 178 181 184 187 187 188 191 193 195 197 197 199 202 205 213 222 233 245 259 265 262 256 246 235 220 210 206 202 195 193
151 155 160 164 164 165 167 169 172 175 178 181 183 186 189 192 195 196 198 200 203 206 210 212 213 216 218 222 228 236 243 253 262 267 275 264 245 227 216 212 208 203 201
154 158 163 167 169 170 171 173 176 180 183 187 190 192 195 199 202 205 206 208 211 214 217 220 222 226 228 230 235 240 245 250 252 255 269 270 267 243 225 218 214 210 208
157 165 167 169 169 170 174 179 182 185 189 192 195 198 201 205 208 212 213 217 219 220 222 225 228 230 233 234 238 243 249 253 246 244 251 259 263 253 236 225 220 217 215
163 171 173 172 171 171 175 185 186 190 195 197 201 205 206 210 214 219 222 223 226 227 228 229 232 235 237 240 242 245 251 243 234 242 244 251 255 254 244 231 224 222 221
172 178 180 179 178 175 185 184 188 195 199 200 201 208 205 204 215 223 230 230 232 232 233 234 236 238 242 241 246 249 245 241 236 241 244 248 253 255 248 235 225 224 224
176 179 182 183 182 183 191 179 189 199 199 208 210 212 213 214 222 229 228 236 236 236 235 237 237 233 231 232 236 237 242 243 233 235 242 247 250 253 247 234 226 225 226
177 184 182 183 184 189 191 184 188 199 203 211 217 215 213 218 224 226 227 227 223 223 221 226 230 233 233 236 238 242 245 241 236 233 241 246 246 245 240 232 226 226 228
181 186 183 183 186 189 191 191 194 204 209 213 215 216 215 217 225 226 227 224 221 215 217 222 229 235 236 238 239 241 244 241 238 236 244 249 245 239 236 231 228 227 230
182 184 181 185 188 186 189 195 198 203 210 213 215 217 215 218 224 226 226 220 217 212 213 217 223 226 229 231 238 243 247 248 245 244 245 254 251 243 236 234 232 231 232
178 175 179 188 190 191 192 194 199 203 208 214 218 219 217 216 220 221 223 220 215 207 206 213 222 221 225 229 240 248 255 258 255 258 260 253 255 252 242 237 236 236 236
162 165 176 188 193 199 201 202 203 205 207 212 215 220 219 218 217 217 219 218 208 200 201 207 211 214 229 233 242 251 251 261 265 266 266 263 259 263 253 244 240 239 240
119 141 151 157 183 204 207 219 231 230 231 231 226 228 226 222 220 216 221 219 203 201 208 217 211 203 223 240 248 249 251 256 266 275 274 273 266 261 259 253 245 242 242
84 101 115 120 159 195 217 239 246 253 259 265 259 248 240 228 221 210 215 216 205 205 213 214 213 212 219 226 254 265 261 256 260 265 272 281 284 282 271 262 255 252 246
76 85 100 109 105 125 224 238 245 250 252 257 259 257 248 231 222 213 215 211 212 217 217 211 207 223 232 211 256 290 283 262 257 260 265 281 297 302 303 297 277 266 262
92 92 93 95 128 172 208 232 237 245 248 242 256 263 252 244 232 223 217 213 214 219 219 217 204 199 219 195 192 243 301 313 286 260 261 270 301 320 330 344 325 292 279
97 106 111 112 113 170 220 259 299 304 302 292 273 264 257 247 239 230 226 221 218 213 222 221 211 206 219 218 197 189 212 249 298 306 291 297 329 339 340 334 322 331 322
139 144 148 157 158 177 160 166 273 280 276 271 271 269 267 251 243 236 228 219 218 215 217 218 215 209 207 222 221 217 211 195 218 294 305 301 320 335 340 344 339 1 12
167 165 165 161 172 186 175 188 228 265 267 281 289 288 281 268 255 247 234 226 225 222 221 219 213 206 206 212 208 203 215 217 207 222 279 309 326 316 329 348 3 14 20
187 177 165 158 180 196 188 196 222 270 285 299 301 297 290 280 272 264 251 235 232 227 223 220 215 210 211 211 207 197 188 191 195 196 230 268 297 302 341 19 24 18 12